Powrót do katalogu

THORAD DELTA 1 DEB

AktywnySSO
NORAD 8399·DEBRIS·🇺🇸 United States

Wystrzelony Nov 15, 1974 z Vandenberg Space Force Base

Loading…

Następne Przeloty (najbliższe 24 godziny)

TLE

ŚwieżeSource: Space-Track

Epoka: Sep 13, 2026, 21:18 UTC

1 08399U 74089CB  26256.88770501 -.00000015  00000-0  20456-3 0  9991
2 08399 101.7599 230.6348 0155453 151.5502 236.8476 12.38911315346116

Śledź THORAD DELTA 1 DEB w czasie rzeczywistym z AllMySat

Download on the App Store